Regional Weather Roundup
Issued by NWS Binghamton, NY

Home | Current Version | Previous Version | Text Only | Print | Product List | Glossary On
Versions: 1 2 3 4 5 6 7 8 9 10 11 12 13 14 15 16 17 18 19 20 21 22 23 24 25 26 27 28 29 30 31 32 33 34 35 36 37 38 39 40 41 42 43 44 45 46 47 48 49 50
000
ASUS41 KBGM 190210
RWRBGM

REGIONAL WEATHER ROUNDUP
NATIONAL WEATHER SERVICE BINGHAMTON NY
900 PM EST WED JAN 18 2017

Note: "fair" indicates few or no clouds below 12,000 feet with no
significant weather and/or obstructions to visibility.

* = Station(s) that does not report precipitation, such as rain,
snow, etc, also no thunder or fog.

NYZ009-015>018-022>025-036-037-044>046-055>057-062-190300
...Central New York...

CITY           SKY/WX    TMP DP  RH WIND       PRES   REMARKS
Binghamton     CLOUDY    34  33  96 W3        29.98S FOG
Cortland       LGT RAIN  34  34 100 CALM      29.99S
Dansville      CLOUDY    39  32  76 SE3       30.01S
Elmira         CLOUDY    38  34  85 S5        30.00S WCI  34
Ithaca         FOG       35  34  96 S3        30.00S VSB 1
Monticello     CLEAR     34  34 100 W5        30.00S WCI  30
Penn Yan       CLOUDY    38  31  76 SW3       30.00S
Rome           CLOUDY    35  35 100 W3        30.01F FOG
Syracuse       DRIZZLE   36  36 100 W7        30.00R WCI  30
$$

PAZ038>040-043-044-047-048-072-190300
...Northeast Pennsylvania...

CITY           SKY/WX    TMP DP  RH WIND       PRES   REMARKS
Hazleton       CLOUDY    37  36  93 W6        30.03R FOG     WCI  33
Scranton       CLOUDY    38  38 100 CALM      30.01S FOG
$$
&&
KEY
WCI = Wind Chill Index
VSB = Visibility
HX  = Heat Index
$$



USA.gov is the U.S. government's official web portal to all federal, state and local government web resources and services.